www.pogodaiklimat.ru

Погода и климат >> Архив погоды >> Россия >> Камчатский край >> Остров Беринга


ПОГОДА на Острове Беринга

  • Прогноз погоды на Острове Беринга
  • Монитор погоды на Острове Беринга
  • Климат города

АРХИВ ПОГОДЫ на Острове Беринга

Время (UTC), дата Ветер
(напр.,м/с)
 
Видим.   Явления Облачность Т
(С)
Тd
(С)
f
(%)
Тe
(С)
Тes
(С)
Комфортность P
(гПа)
Po
(гПа)
Тmin
(С)
Tmax
(С)
R
(мм)
S
(см)
03 16.03 ЮВ 7-10
{10}
20 км {ливн. осадки} 8/6 600 м
[Sc Ac trans]
+3.6 +1.7 87 -2 -2 1013.3 1011.1
06 16.03 Ю 5
{11}
20 км {ливн. осадки} 9/5 600 м
[Sc Ac trans]
+2.8 +1.1 89 -3 -3 1012.9 1010.7
09 16.03 ЮВ 4
{10}
10 км слабый ливневой дождь 9/9 600 м
[Cb cap]
+2.4 +0.7 89 -3 -3 1013.3 1011.1 +3.8 0.9
12 16.03 ЮВ 5 20 км {ливн. осадки} 10/10 600 м
[Cb cap]
+2.2 +1.2 93 -3 -3 1012.8 1010.6
15 16.03 В 6 20 км 10/10 300 м
[St]
+2.0 +1.4 96 -4 -4 1011.4 1009.2
18 16.03 В 9-12
{12}
20 км 10/10 300 м
[St]
+2.3 +1.4 94 -5 -5 1010.2 1007.9
21 16.03 В 7-10
{14}
20 км 10/10 100 м
[St]
+1.9 +1.1 94 -5 -5 1009.9 1007.7 +1.6 0.1 1
00 17.03 В 7-12
{16}
20 км 10/10 600 м
[Sc]
+2.3 +0.9 90 -4 -4 1009.1 1006.9
03 17.03 СВ 9-14
{14}
20 км 9/9 600 м
[Sc]
+2.1 -0.1 85 -5 -5 1006.2 1004.0
06 17.03 В 12-17
{20}
20 км 9/9 600 м
[Sc]
+1.5 -0.4 87 -7 -7 1003.3 1001.1
09 17.03 В 10-14
{17}
20 км 10/10 600 м
[Sc]
+1.4 -0.4 88 -6 -6 1002.7 1000.5 +2.8
12 17.03 СВ 10-16
{18}
10 км слабый ливневой снег 10/10 200 м
[Cb cap]
+0.9 +0.2 95 -7 -7 1001.7 999.5
15 17.03 СВ 9-12
{16}
10 км слабый ливневой снег 10/10 300 м
[Cb cap]
+1.0 +0.2 94 -7 -7 1000.3 998.1
18 17.03 СВ 8-14
{14}
20 км {ливн. осадки} 10/10 600 м
[Cb cap]
+1.3 +0.3 93 -6 -6 998.9 996.7
21 17.03 СВ 8-14
{15}
4000 м слабый ливневой дождь со снегом 10/10 300 м
[Cb cap]
+0.8 +0.3 96 -7 -7 998.1 995.9 +0.4 2 0
00 18.03 СВ 6-10
{14}
4000 м слабый ливневой дождь со снегом 10/10 300 м
[Cb cap]
+1.5 +0.6 94 -5 -5 997.3 995.1
03 18.03 СВ 8-11
{14}
4000 м слабый дождь {ливн. осадки} 10/10 300 м
[Frnb Ns]
+1.5 +0.9 96 -6 -6 995.4 993.2
06 18.03 СВ 9-15
{15}
4000 м слабый дождь со снегом {ливн. осадки} 10/10 300 м
[Frnb Ns]
+1.0 +0.5 96 -7 -7 993.7 991.5
09 18.03 СВ 9-15
{19}
4000 м слабый дождь со снегом 10/10 300 м
[Frnb Ns]
+1.0 +0.4 96 -7 -7 993.0 990.8 +1.6 6
12 18.03 СВ 13-19
{20}
4000 м слабый дождь со снегом 10/10 300 м
[Frnb Ns]
+1.5 +0.9 96 -7 -7 991.8 989.6
15 18.03 СВ 7-12
{19}
4000 м слабый дождь со снегом 10/10 300 м
[Frnb Ns]
+1.5 +0.9 96 -5 -5 991.6 989.4
18 18.03 В 6
{14}
20 км {дождь} 10/10 600 м
[Sc]
+2.1 +0.7 90 -4 -4 994.0 991.8
21 18.03 В 3
{10}
20 км 10/10 600 м
[Sc]
+1.9 +1.1 94 -3 -3 996.0 993.8 +0.7 3 0
00 19.03 СВ 4 20 км 10/10 600 м
[Sc]
+2.4 +1.4 93 -3 -3 996.3 994.1
03 19.03 В 5 20 км 8/8 600 м
[Sc]
+3.3 +1.9 91 -2 -1 995.8 993.6
06 19.03 В 3
{13}
20 км 8/6 600 м
[Sc Ci fib]
+1.6 +0.7 94 -3 -3 995.7 993.5
09 19.03 В 11-16
{17}
20 км 8/8 600 м
[Sc]
+1.6 -0.3 87 -6 -6 995.7 993.5 +3.7
12 19.03 СВ 8-12
{16}
20 км 10/10 600 м
[Sc]
+1.7 -0.3 87 -5 -5 996.8 994.6
15 19.03 СВ 11-15
{16}
20 км 1/1 600 м
[Sc]
+1.6 +0.7 94 -7 -7 996.0 993.8
18 19.03 В 12-17
{17}
20 км 10/10 600 м
[Sc]
+1.7 +0.5 92 -7 -7 995.7 993.5
21 19.03 СВ 13-19
{19}
10 км слабый ливневой дождь 8/8 600 м
[Cb cap]
+2.1 +0.8 91 -6 -6 997.0 994.8 +1.3 0.4 0
00 20.03 СВ 12-18
{19}
20 км {ливн. осадки} 8/6 600 м
[Cb cap Cs]
+2.7 +1.5 92 -5 -5 997.4 995.2
03 20.03 В 8-13
{18}
20 км 10/10 600 м
[Sc]
+2.6 +1.7 94 -4 -4 997.8 995.6
06 20.03 В 9-16
{17}
10 км слабый ливневой дождь 10/10 300 м
[Cb cap]
+2.0 +1.1 94 -5 -5 997.6 995.4
09 20.03 В 7-12
{17}
10 км слабый ливневой дождь 10/10 200 м
[Cb cap]
+1.9 +1.0 94 -5 -5 999.5 997.3 +3.2 6
12 20.03 В 8-15
{16}
10 км слабый ливневой дождь 10/10 200 м
[Cb cap]
+2.0 +1.0 93 -5 -5 999.7 997.5
15 20.03 В 4
{15}
10 км слабая морось {ливн. осадки} 10/10 200 м
[St]
+2.0 +1.3 95 -3 -3 999.5 997.3
18 20.03 В 9-15
{16}
10 км слабая морось {ливн. осадки} 10/10 200 м
[St]
+1.8 +1.2 96 -6 -6 999.3 997.1
21 20.03 В 8-13
{18}
10 км слабый ливневой дождь со снегом {морось} 10/10 200 м
[Cb cap]
+1.8 +0.9 94 -5 -5 1000.8 998.6 +1.6 3 0
00 21.03 В 9-13
{14}
10 км слабый ливневой дождь {морось} 10/10 200 м
[Cb cap]
+1.9 +1.0 94 -6 -6 1000.5 998.3
03 21.03 СВ 8-14
{18}
10 км слабый ливневой дождь 10/10 200 м
[Cb cap]
+1.2 +0.8 97 -6 -6 998.8 996.5
06 21.03 В 8-12
{14}
10 км слабый ливневой дождь 10/10 300 м
[Cb cap]
+1.8 +1.2 96 -5 -5 998.0 995.8
09 21.03 ЮВ 6
{14}
20 км {ливн. осадки} 8/8 600 м
[Cb cap]
+1.7 +0.6 92 -5 -5 1000.5 998.3 +2.1 4
12 21.03 В 5
{11}
20 км {ливн. осадки} 8/8 600 м
[Sc]
+1.6 +0.6 93 -4 -4 1001.7 999.5
15 21.03 В 3 20 км 3/3 600 м
[Sc]
+1.2 +0.3 94 -3 -3 1002.4 1000.1
18 21.03 СВ 1 20 км 8/8 600 м
[Sc]
+0.9 +0.1 94 -1 -1 1002.8 1000.6
21 21.03 В 5 20 км 9/9 600 м
[Cu Sc]
+2.0 +1.1 94 -4 -4 1003.2 1001.0 +0.7 0
00 22.03 В 5 20 км 10/10 600 м
[Sc]
+2.5 +1.6 94 -3 -3 1003.0 1000.8 +0.6
03 22.03 В 6-10
{10}
20 км {ливн. осадки} 9/9 600 м
[Cb cap]
+2.9 +1.8 92 -3 -3 1002.8 1000.6
06 22.03 В 6-11
{11}
20 км {ливн. осадки} 6/6 600 м
[Sc]
+2.8 +1.5 91 -3 -3 1003.2 1001.0
09 22.03 В 4
{11}
20 км 10/10 600 м
[Sc]
+1.9 +1.0 94 -3 -3 1004.1 1001.9 +3.1 2
12 22.03 В 2 20 км 9/9 600 м
[Sc]
+1.1 +0.1 93 -2 -2 1004.4 1002.2
15 22.03 В 3 20 км 6/6 600 м
[Sc]
+1.0 +0.1 94 -4 -4 1004.1 1001.9
18 22.03 В 3 20 км 10/10 600 м
[Sc]
+1.4 +0.6 94 -3 -3 1004.3 1002.1
21 22.03 В 2 20 км 9/8 600 м
[Sc Ci fib]
+1.7 +0.6 92 -2 -1 1004.6 1002.4 +0.9 0

 

Местоположение метеостанции Остров Беринга (Камчатский край, Россия): широта 55.20 долгота 165.90 высота над уровнем моря 18 м.

В архиве по умолчанию представлена погода на Острове Беринга за последнюю неделю. Архивные данные за месяц целиком и за предыдущие месяцы, начиная с января 2011 года, Вы можете получить, выбрав интересующий диапазон дат из раскрывающегося списка и нажав кнопку "Ввод!".

Внимание! Время в таблицах - всемирное. Для получения местного времени необходимо прибавить поправку, которая на Острове Беринга равна 12 ч.

Смотрите также архив погоды в соседних городах и на ближайших метеорологических станциях:

Погода на Мысе Африка (Камчатский край, Россия) (196 км)
Погода в Усть-Камчатске (Камчатский край, Россия) (230 км)
Погода на Мысе Озерном (Камчатский край, Россия) (319 км)
Погода в Ключах (Камчатский край, Россия) (343 км)
Погода в Козыревске (Камчатский край, Россия) (394 км)
Погода в Семячике (Камчатский край, Россия) (404 км)
Погода в Долиновке (Камчатский край, Россия) (438 км)
Погода в Эссо (Камчатский край, Россия) (460 км)
Погода в Мильково (Камчатский край, Россия) (476 км)
Погода в Оссоре (Камчатский край, Россия) (481 км)

Пояснения к столбцам:

Ветер - указаны скорость ветра в м/с - средняя за 10 мин, порывы в срок и между сроками (в фигурных скобках) и направление, откуда дует ветер: С - северный, СВ - северо-восточный, В - восточный, ЮВ - юго-восточный, Ю - южный, ЮЗ - юго-западный, З - западный, СЗ - северо-западный.
Видимость - горизонтальная дальность видимости в метрах или километрах. При видимости от 1 до 10 км при отсутствии осадков обычно наблюдается дымка, при ухудшении видимости до 1 км и менее - туман. В сухую погоду видимость может ухудшаться дымом, пылью или мглою.
Явления - указаны атмосферные явления, наблюдавшиеся в срок или в последний час перед сроком; фигурными скобками обозначены явления, наблюдавшиеся между сроками (за 1-3 часа до срока); квадратными скобками обозначены град или гололедные отложения с указанием их диаметра в мм.
Облачность - указаны через наклонную черту общая и нижняя облачность в баллах и высота нижней границы облаков в метрах; квадратными скобками обозначены формы облаков: Ci - перистые, Cs - перисто-слоистые, Cc - перисто-кучевые, Ac - высококучевые, As - высокослоистые, Sc - слоисто-кучевые, Ns - слоисто-дождевые, Cu - кучевые, Cb - кучево-дождевые. Подробнее классификацию облаков см. в Атласе облаков (PDF).
T - Температура воздуха - температура, измеренная на высоте 2 м над землей.
Td - Температура точки росы - температура, при понижении до которой содержащийся в воздухе водяной пар достигнет насыщения.
f - Относительная влажность воздуха - влажноcть воздуха, измеренная на высоте 2 м над землей.
Te - Эффективная температура - температура, которую ощущает одетый по сезону человек в тени. Характеристика душности погоды. При расчете учитывается влияние влажности воздуха и скорости ветра на теплоощущения человека.
Tes - Эффективная температура на солнце - температура, которую ощущает человек, с поправкой на солнечный нагрев. Характеристика знойности погоды. Зависит от высоты солнца над горизонтом, облачности и скорости ветра. Ночью, в пасмурную погоду, а также при ветре 12 м/с и более поправка равна нулю.
P - Атмосферное давление - приведенное к уровню моря атмосферное давление.
Po - Атмосферное давление - измеренное на уровне метеостанции атмосферное давление.
Tmin - Минимальная температура - минимум температуры воздуха на высоте 2 м над землей.
Tmax - Максимальная температура - максимум температуры воздуха на высоте 2 м над землей.
R - Количество осадков - Количество выпавших осадков, мм. При наведении курсора мыши на число - период времени, за который выпало указанное количество осадков.
S - Снежный покров - Высота снежного покрова, см. При наведении курсора мыши на число - состояние снежного покрова и степень покрытия местности в баллах.